Temperature
17 20 19 18 17 17 18 18 18 17 13 12 13 14 14 10 8 8 9 8 7 6 5 3 2 2 2 1 1 0 -0 -1 -1 -1 -2 -2 -3 -4 -5 -6 -7 -8 -9 -9
20 18 16 15 15 16 17 18 18 16 12 12 13 14 15 13 9 9 9 8 8 7 5 3 2 2 1 1 1 0 -1 -2 -2 -2 -2 -3 -4 -5 -6 -7 -8 -9 -9 -10
20 16 14 15 16 17 17 17 17 16 14 12 12 17 14 11 9 8 8 8 8 7 5 3 2 2 1 1 1 -0 -1 -2 -2 -2 -3 -4 -5 -6 -7 -7 -8 -9 -10 -10
17 15 15 16 16 16 18 15 14 14 15 16 14 18 18 14 12 10 8 8 7 6 5 4 2 1 1 1 1 -0 -1 -2 -2 -3 -4 -5 -5 -7 -7 -8 -9 -10 -10 -11
16 15 15 16 15 14 15 13 13 13 14 16 15 17 20 13 16 15 12 9 8 6 5 3 2 2 1 1 0 -1 -2 -2 -3 -3 -4 -5 -6 -7 -8 -9 -9 -10 -10 -11
15 13 14 15 13 13 13 13 13 13 15 18 16 17 19 18 17 16 12 9 8 6 4 2 2 2 2 1 -0 -1 -2 -2 -3 -3 -4 -5 -6 -7 -8 -9 -10 -10 -11 -11
16 15 13 13 15 14 15 18 19 19 19 19 14 15 18 18 15 13 12 10 7 5 3 2 2 2 1 1 -0 -1 -2 -3 -3 -4 -5 -6 -7 -8 -9 -10 -10 -11 -11 -11
19 18 15 14 15 16 15 17 18 18 18 18 15 16 19 15 11 9 8 7 5 4 3 2 2 1 1 0 -1 -1 -2 -3 -3 -4 -5 -6 -7 -8 -9 -10 -11 -11 -11 -11
19 18 13 12 12 14 16 16 14 16 16 15 18 18 18 13 12 10 8 6 5 4 2 2 1 1 1 0 -1 -1 -2 -3 -3 -4 -5 -6 -7 -8 -9 -10 -11 -11 -11 -12
17 17 14 12 12 12 14 15 15 16 16 17 18 18 18 19 18 14 11 8 6 3 2 1 1 1 1 0 -1 -1 -2 -3 -4 -4 -5 -6 -7 -8 -9 -10 -11 -11 -11 -12
14 17 15 14 14 16 13 13 14 15 15 16 17 19 19 19 17 15 14 10 7 4 3 2 2 1 1 -0 -1 -2 -2 -3 -4 -5 -5 -6 -7 -8 -9 -10 -10 -11 -11 -12
13 16 18 16 12 12 14 15 15 16 16 14 15 17 18 16 14 12 12 9 7 4 3 2 2 1 1 -0 -1 -2 -3 -3 -4 -5 -5 -6 -7 -8 -9 -9 -10 -11 -11 -12
11 15 18 17 14 11 12 12 13 14 14 14 14 18 17 13 12 10 9 8 6 4 2 2 2 1 0 -1 -1 -2 -3 -3 -4 -5 -5 -6 -7 -8 -9 -9 -10 -11 -11 -12
10 14 17 19 18 16 13 11 11 13 14 15 14 17 19 18 16 14 10 8 5 3 2 2 2 1 0 -1 -2 -2 -3 -3 -4 -5 -5 -6 -7 -8 -8 -9 -9 -10 -11 -12
10 13 14 14 12 12 13 13 10 12 14 15 17 16 17 18 17 14 10 7 4 2 2 2 2 1 0 -1 -1 -2 -3 -3 -4 -5 -5 -6 -7 -7 -8 -8 -9 -10 -11 -11
9 11 12 13 11 10 10 11 11 11 12 13 13 14 16 15 12 9 8 6 4 3 3 3 2 1 0 -1 -1 -2 -3 -3 -4 -5 -5 -6 -7 -7 -8 -8 -9 -9 -10 -11
9 11 12 15 12 11 14 14 11 10 11 12 13 16 17 13 11 10 9 7 7 6 4 4 3 2 0 -1 -1 -2 -3 -3 -4 -5 -5 -6 -7 -7 -8 -8 -9 -9 -10 -10
9 11 12 13 14 14 19 13 12 11 12 11 12 14 14 13 11 9 10 8 8 7 6 4 3 1 0 -1 -1 -2 -3 -3 -4 -5 -5 -6 -6 -7 -8 -8 -8 -9 -9 -10
8 11 12 11 13 16 17 11 10 11 14 14 12 13 13 10 7 11 13 12 10 8 6 5 3 1 0 -1 -1 -2 -2 -3 -4 -5 -5 -6 -6 -7 -7 -8 -8 -9 -9 -9
6 9 11 9 12 15 18 12 9 12 15 15 12 13 12 6 12 15 12 11 9 7 5 4 2 1 0 -1 -2 -2 -2 -3 -4 -4 -5 -6 -6 -7 -7 -7 -8 -8 -9 -9
7 8 9 9 11 14 15 8 10 15 18 18 15 14 12 9 13 13 11 10 9 7 5 3 2 1 0 -1 -1 -2 -2 -3 -4 -4 -5 -6 -6 -7 -7 -7 -8 -8 -8 -9
10 9 9 10 11 13 11 9 13 18 18 17 17 16 14 14 13 12 11 9 8 7 5 3 2 1 -0 -1 -1 -2 -2 -3 -4 -4 -5 -6 -6 -6 -7 -7 -7 -7 -8 -8
11 12 12 12 14 15 11 13 15 16 17 18 17 16 15 13 13 12 11 9 8 7 5 3 2 1 -0 -1 -1 -2 -2 -3 -4 -4 -5 -5 -6 -6 -6 -6 -6 -7 -7 -8
10 9 10 9 11 12 11 14 16 17 17 18 17 16 15 14 14 12 11 9 8 6 5 3 2 1 0 -0 -1 -2 -2 -3 -3 -4 -5 -5 -5 -6 -6 -6 -6 -6 -6 -8
13 8 9 10 13 12 14 17 19 19 18 18 18 17 16 15 14 13 11 10 8 7 5 3 2 1 1 -0 -1 -2 -2 -3 -3 -4 -5 -5 -5 -5 -5 -5 -5 -6 -6 -7
10 9 11 15 16 14 17 19 19 18 18 18 17 17 16 15 15 13 12 10 8 7 6 4 3 2 1 -0 -1 -2 -2 -3 -3 -4 -4 -5 -5 -5 -5 -5 -5 -5 -6 -6
Wind_Speed
4 4 5 4 3 3 1 3 6 2 3 6 12 16 13 12 16 18 18 17 17 17 14 12 12 10 7 4 2 4 6 8 9 8 8 9 10 9 10 11 14 15 17 18
3 4 3 1 1 1 2 5 5 2 2 5 11 17 12 10 17 18 18 18 18 16 14 13 13 11 8 4 1 3 5 7 8 8 8 8 10 9 10 11 13 15 17 17
4 4 2 2 2 2 3 4 6 7 3 4 9 6 2 2 8 13 16 17 17 17 16 15 14 12 8 4 1 3 5 6 8 9 8 9 8 8 8 10 11 15 17 17
6 2 2 2 1 2 2 1 4 5 6 3 4 5 1 1 5 9 14 16 17 16 16 15 14 12 8 4 1 1 4 6 7 8 8 11 9 10 11 10 11 16 16 17
4 2 2 2 0 2 2 1 3 3 4 4 1 5 2 1 2 3 6 12 14 14 14 14 13 11 7 5 2 1 3 5 6 8 9 10 10 10 10 11 13 14 15 16
4 2 1 1 1 1 1 2 3 3 3 2 1 4 4 0 1 2 2 4 9 12 13 13 12 10 7 5 2 1 3 4 6 7 8 10 11 12 13 13 13 12 12 14
3 3 2 1 2 2 2 5 4 3 3 3 1 5 7 2 4 6 6 5 5 10 13 14 13 11 8 5 3 2 3 4 6 7 8 9 10 12 12 13 13 14 12 13
4 3 2 1 1 1 1 3 4 5 6 6 2 5 5 2 3 5 6 6 6 11 13 14 13 10 8 6 3 2 3 4 6 7 8 8 9 9 9 12 12 13 12 13
4 2 2 1 1 1 1 2 2 3 4 6 6 5 8 4 7 8 8 8 9 12 14 14 12 10 8 6 4 2 2 4 6 7 8 8 9 10 11 12 12 11 13 15
3 3 3 3 3 3 2 4 3 2 4 6 8 7 4 6 6 5 9 11 11 13 14 14 12 10 8 6 4 2 2 4 5 7 7 7 9 10 11 11 12 13 15 16
2 4 3 4 6 5 5 4 3 2 3 4 7 7 5 9 7 8 9 9 11 15 16 14 12 10 8 6 5 3 2 3 5 6 7 8 9 10 11 10 12 13 14 16
2 3 4 3 2 2 3 5 6 4 4 4 5 8 4 8 7 9 10 8 10 14 15 14 12 11 9 7 6 4 2 3 5 6 7 8 9 9 10 11 12 13 14 15
4 4 3 3 3 4 5 5 6 3 3 5 5 9 2 5 8 10 11 9 9 13 14 14 12 11 9 8 6 5 3 3 4 6 7 8 9 10 11 11 12 13 13 14
3 5 7 5 1 5 7 8 10 9 7 7 12 17 17 13 12 11 10 9 10 13 15 15 13 11 10 8 7 5 4 3 4 5 7 8 9 10 11 11 12 12 13 13
3 5 6 7 4 4 7 11 14 15 13 12 13 13 20 18 16 12 8 8 11 14 16 16 14 12 11 9 8 6 4 4 4 5 6 7 8 10 10 11 11 12 12 13
5 5 3 5 3 6 9 15 18 18 14 17 21 21 23 18 10 8 9 10 13 16 17 17 15 13 12 11 9 7 5 4 4 5 6 7 8 9 10 11 11 12 12 13
7 6 4 4 2 5 12 13 19 11 14 13 15 14 10 7 10 11 10 12 15 16 17 18 16 14 12 11 10 8 6 4 5 5 6 7 8 9 10 11 11 12 12 13
7 5 3 4 3 9 6 3 12 11 12 17 17 16 15 13 11 10 12 13 14 15 17 17 15 13 12 11 10 8 6 5 5 6 6 7 7 9 10 11 11 12 12 12
4 5 4 3 5 10 7 6 8 10 10 15 19 20 17 3 7 9 11 14 13 15 16 15 14 14 12 12 10 9 7 6 6 6 7 7 7 9 10 11 12 12 12 12
2 3 4 4 5 9 5 5 6 4 7 8 14 16 9 3 7 7 4 10 11 11 13 13 13 13 13 12 11 9 8 7 7 6 6 7 8 9 10 11 12 12 11 12
5 6 8 9 8 11 3 7 9 5 6 4 11 12 9 10 10 1 5 8 11 13 13 14 14 13 13 12 11 10 9 8 7 5 6 8 8 9 10 11 11 11 11 12
12 11 11 9 9 12 8 12 11 8 1 3 7 9 11 14 9 5 7 10 13 14 15 15 14 13 12 13 12 11 10 8 6 6 7 8 8 8 8 10 11 10 10 11
13 12 9 13 11 4 12 12 9 4 5 6 6 8 11 12 12 10 10 12 14 15 16 15 14 14 12 13 13 12 9 8 7 6 7 7 8 8 8 9 10 9 8 9
9 6 7 9 15 12 13 16 15 13 14 15 11 10 10 14 13 13 12 13 15 16 16 16 16 15 14 14 13 11 9 8 7 6 6 6 7 7 7 7 7 7 7 8
9 11 8 11 11 10 14 19 22 20 19 19 18 15 16 15 15 14 14 15 16 16 17 16 17 16 16 15 14 12 10 9 8 7 6 6 6 6 7 6 6 7 6 8
9 12 12 14 10 11 10 6 8 14 17 17 16 15 15 16 16 15 15 15 17 18 18 17 18 17 15 15 14 13 12 11 9 7 6 4 4 5 5 6 6 5 6 10
Wind_Direction
28 84 79 62 22 12 331 288 300 320 152 237 259 269 264 215 212 223 225 223 223 224 218 201 196 192 194 206 287 340 340 344 344 342 341 337 335 332 331 331 330 329 330 329
121 83 58 33 119 199 255 286 302 293 180 260 293 286 276 233 219 225 230 229 228 225 213 201 196 195 201 210 283 332 341 342 345 342 333 326 323 321 321 325 327 328 328 325
94 93 92 134 127 240 258 286 311 313 305 238 302 289 168 189 230 235 239 240 235 227 218 204 197 196 199 204 275 337 337 336 341 339 331 327 323 324 331 333 329 328 325 321
94 109 157 158 110 317 293 303 292 294 299 311 342 320 137 189 250 239 236 234 233 227 220 206 195 193 191 178 154 320 330 333 341 340 337 337 332 331 332 329 323 323 322 320
120 127 161 198 134 280 313 310 266 261 277 284 269 297 314 114 269 240 238 234 231 223 213 200 190 182 170 158 164 304 322 330 341 342 339 334 330 328 325 326 324 325 324 322
106 120 58 94 151 232 239 220 184 201 242 280 71 312 299 133 268 274 262 254 229 214 200 188 174 165 161 161 178 280 313 329 342 342 339 335 331 329 327 329 327 328 325 324
151 156 127 192 209 177 261 309 314 310 312 346 75 276 268 305 266 271 278 278 228 200 188 178 172 173 174 181 196 257 305 332 344 340 336 333 329 327 327 328 326 327 325 326
206 183 151 148 328 1 38 345 357 323 318 318 262 264 281 258 256 258 262 263 219 196 189 183 179 177 178 184 199 247 308 335 340 335 332 327 327 325 322 323 322 322 322 323
221 181 118 76 51 312 144 107 28 277 285 284 277 276 290 217 248 244 243 235 216 199 191 186 179 178 180 185 197 240 307 330 332 328 324 323 328 325 321 321 320 321 321 322
234 201 162 138 141 54 10 140 162 243 306 301 294 280 264 295 297 245 239 233 219 200 192 187 181 180 181 183 192 219 290 320 321 319 321 319 322 322 319 318 321 322 322 324
229 222 170 189 209 197 159 160 172 179 253 274 298 289 211 262 286 276 271 245 217 199 192 187 182 179 179 183 196 214 265 303 311 315 317 318 321 320 319 318 320 322 322 324
204 238 224 192 106 359 226 203 188 220 219 226 265 272 217 241 259 260 268 261 222 201 191 185 180 178 184 192 199 211 247 287 305 309 312 316 318 320 320 321 321 321 323 325
179 216 224 190 183 192 212 203 200 194 207 218 237 264 172 233 253 256 260 259 219 195 187 183 181 186 191 195 200 207 235 274 295 301 307 312 318 321 321 321 320 321 323 324
197 239 244 263 184 170 197 194 189 187 211 228 234 264 284 286 287 284 266 247 215 195 190 188 189 190 192 196 199 205 227 259 284 295 302 309 317 321 319 319 319 321 322 324
201 248 250 267 260 233 236 216 197 209 223 237 254 261 275 289 302 299 279 231 205 197 195 195 194 191 191 194 197 202 219 245 270 287 297 306 313 316 316 317 318 320 321 322
206 238 253 267 237 228 254 239 221 225 235 244 260 272 271 280 282 265 250 222 209 204 200 198 195 192 192 193 193 197 211 232 259 277 288 296 304 307 310 313 318 320 320 321
189 204 224 256 192 281 265 234 201 204 214 212 230 247 266 264 261 265 254 221 217 209 200 197 195 193 191 189 187 193 204 219 247 267 280 288 296 303 308 312 316 319 319 317
180 192 233 273 265 245 254 125 184 208 229 219 238 258 268 273 290 277 254 233 220 207 198 196 192 187 182 178 180 186 196 218 242 261 272 280 290 297 304 310 314 317 317 315
217 204 224 235 250 271 267 186 178 202 258 223 229 251 264 306 305 275 231 221 218 203 194 189 183 177 172 174 177 184 200 216 236 253 265 276 283 291 299 306 311 317 315 312
134 203 226 213 229 246 256 146 160 163 274 226 209 237 242 181 287 305 166 197 201 190 181 174 168 166 171 174 175 189 204 215 231 247 264 276 282 287 296 304 311 314 314 312
174 194 212 221 238 262 253 138 151 190 255 187 202 224 201 209 241 269 162 185 185 178 171 167 166 171 176 173 178 195 206 217 226 243 266 276 282 290 296 302 307 310 312 314
180 180 197 190 213 251 164 154 194 226 239 197 214 221 218 231 239 212 199 187 180 175 172 171 172 176 174 176 184 199 210 211 212 237 263 276 284 290 291 301 307 311 316 319
205 200 196 197 215 277 172 205 229 282 257 241 230 229 223 237 238 221 207 195 188 182 177 177 177 176 178 183 192 204 204 196 204 230 257 275 286 290 294 302 309 316 323 324
215 207 206 233 255 250 227 242 252 247 250 261 255 243 224 233 237 218 205 195 190 187 182 179 181 184 187 189 197 206 194 188 203 228 252 272 284 294 302 305 307 315 322 324
205 178 210 239 258 286 260 237 243 250 253 258 257 245 237 235 234 216 204 198 192 188 185 183 188 192 192 189 196 199 194 191 204 223 244 264 277 290 300 306 308 311 315 323
194 190 203 241 226 223 251 227 220 235 248 247 246 248 234 225 229 213 206 199 192 188 185 187 192 194 191 189 194 195 192 193 200 214 232 253 275 291 301 308 310 301 307 325
Height
1581 1580 1583 1588 1590 1590 1588 1587 1585 1588 1597 1598 1590 1586 1586 1591 1593 1594 1595 1596 1597 1598 1600 1599 1598 1598 1597 1596 1594 1591 1588 1584 1580 1576 1572 1568 1563 1557 1551 1546 1540 1534 1528 1522
1580 1586 1593 1594 1593 1593 1590 1588 1585 1589 1597 1596 1587 1580 1577 1581 1585 1587 1589 1590 1591 1594 1595 1594 1594 1594 1594 1593 1591 1588 1585 1581 1577 1573 1569 1564 1558 1553 1548 1542 1537 1531 1525 1519
1580 1591 1594 1593 1592 1591 1589 1588 1588 1591 1592 1595 1591 1569 1574 1580 1583 1584 1584 1585 1586 1588 1589 1589 1589 1590 1591 1590 1588 1585 1581 1578 1574 1570 1566 1561 1556 1551 1546 1540 1534 1528 1522 1516
1587 1593 1593 1592 1592 1591 1587 1592 1593 1593 1589 1581 1590 1571 1563 1573 1577 1578 1579 1579 1580 1582 1584 1585 1586 1587 1587 1586 1585 1582 1578 1575 1571 1567 1563 1558 1553 1548 1543 1536 1530 1525 1519 1513
1588 1592 1591 1591 1593 1594 1590 1594 1593 1592 1589 1584 1585 1576 1560 1573 1568 1570 1573 1574 1575 1577 1579 1581 1582 1583 1583 1583 1581 1578 1575 1572 1569 1565 1560 1555 1550 1545 1539 1533 1528 1522 1517 1511
1591 1593 1592 1592 1594 1594 1593 1592 1592 1591 1585 1576 1581 1578 1563 1561 1564 1567 1570 1571 1571 1573 1574 1576 1577 1579 1580 1579 1578 1575 1572 1569 1566 1562 1558 1553 1548 1542 1536 1531 1525 1519 1513 1508
1588 1591 1593 1594 1591 1591 1590 1583 1576 1573 1572 1571 1587 1582 1565 1561 1566 1567 1568 1569 1568 1569 1570 1571 1573 1575 1576 1576 1574 1572 1570 1567 1564 1560 1555 1550 1545 1539 1534 1528 1522 1516 1510 1505
1581 1584 1590 1592 1590 1588 1589 1586 1586 1589 1580 1574 1581 1575 1558 1563 1565 1566 1565 1565 1565 1565 1566 1567 1569 1571 1572 1572 1570 1569 1567 1564 1561 1557 1552 1547 1542 1536 1531 1525 1520 1514 1508 1502
1578 1583 1592 1593 1593 1591 1588 1588 1593 1589 1589 1589 1570 1565 1558 1561 1562 1562 1562 1561 1561 1561 1562 1563 1565 1567 1568 1568 1567 1565 1564 1561 1558 1553 1549 1544 1539 1534 1528 1523 1517 1511 1506 1500
1581 1582 1589 1593 1594 1595 1592 1590 1591 1589 1589 1583 1567 1563 1558 1549 1550 1555 1556 1556 1555 1556 1557 1559 1560 1562 1563 1563 1563 1561 1560 1558 1554 1550 1546 1541 1536 1531 1525 1520 1515 1509 1503 1497
1586 1581 1587 1590 1589 1584 1592 1593 1590 1589 1589 1586 1576 1558 1547 1546 1547 1549 1550 1550 1550 1550 1551 1553 1556 1558 1559 1559 1558 1558 1556 1554 1551 1547 1543 1538 1533 1528 1523 1517 1512 1506 1500 1495
1587 1581 1576 1582 1589 1590 1586 1584 1585 1584 1584 1589 1583 1561 1542 1545 1546 1547 1546 1546 1545 1545 1547 1549 1551 1553 1554 1554 1554 1554 1553 1551 1548 1544 1540 1536 1531 1525 1520 1515 1509 1503 1498 1492
1588 1583 1574 1576 1586 1591 1587 1587 1586 1585 1584 1584 1581 1553 1540 1543 1543 1543 1542 1541 1540 1540 1542 1544 1546 1548 1550 1550 1550 1550 1549 1547 1544 1541 1537 1533 1528 1523 1518 1512 1506 1500 1495 1489
1588 1582 1573 1565 1564 1569 1578 1583 1586 1583 1579 1574 1569 1546 1533 1534 1535 1536 1536 1535 1535 1535 1536 1539 1541 1544 1545 1546 1546 1546 1545 1543 1540 1537 1534 1530 1525 1520 1515 1510 1504 1498 1492 1487
1587 1580 1575 1571 1574 1575 1572 1573 1579 1575 1566 1563 1547 1544 1533 1529 1530 1531 1531 1530 1529 1530 1531 1533 1536 1539 1540 1541 1541 1541 1540 1539 1537 1534 1531 1527 1523 1518 1513 1507 1502 1496 1490 1484
1585 1581 1578 1572 1573 1575 1573 1566 1567 1568 1564 1558 1551 1543 1528 1527 1527 1526 1526 1524 1523 1523 1524 1528 1531 1534 1535 1536 1537 1537 1536 1535 1533 1531 1528 1524 1520 1516 1510 1505 1499 1494 1488 1482
1581 1579 1575 1564 1569 1570 1556 1541 1552 1554 1549 1547 1542 1529 1522 1524 1523 1521 1519 1517 1516 1517 1519 1521 1525 1528 1530 1532 1532 1532 1532 1531 1529 1527 1525 1521 1518 1513 1508 1503 1497 1492 1486 1480
1577 1575 1571 1566 1564 1563 1527 1535 1537 1540 1536 1535 1529 1522 1520 1519 1518 1515 1513 1511 1510 1511 1513 1516 1520 1523 1525 1527 1528 1528 1528 1527 1526 1524 1522 1519 1515 1510 1506 1500 1495 1489 1484 1478
1575 1572 1569 1571 1561 1542 1527 1532 1535 1536 1526 1520 1521 1517 1515 1515 1513 1508 1506 1505 1505 1507 1509 1512 1516 1519 1520 1522 1523 1523 1523 1523 1522 1520 1518 1516 1512 1508 1503 1498 1492 1487 1482 1476
1576 1574 1572 1574 1563 1548 1519 1526 1528 1531 1524 1509 1512 1511 1511 1513 1511 1503 1502 1502 1501 1503 1505 1508 1511 1513 1515 1517 1518 1519 1519 1519 1518 1517 1515 1512 1509 1505 1500 1495 1490 1485 1480 1474
1572 1571 1570 1567 1560 1535 1518 1524 1529 1528 1512 1505 1505 1505 1506 1506 1503 1500 1497 1497 1497 1498 1500 1503 1506 1508 1510 1512 1513 1514 1514 1514 1514 1513 1512 1509 1506 1502 1498 1493 1488 1483 1478 1473
1548 1555 1557 1555 1555 1534 1518 1522 1518 1506 1501 1501 1500 1500 1499 1497 1495 1493 1492 1492 1492 1493 1495 1497 1500 1503 1505 1507 1508 1509 1510 1510 1510 1509 1508 1506 1503 1499 1495 1491 1486 1481 1476 1470
1533 1529 1529 1529 1519 1509 1507 1504 1501 1500 1498 1496 1495 1494 1493 1490 1488 1486 1485 1485 1486 1487 1489 1491 1494 1497 1499 1501 1503 1505 1505 1506 1506 1505 1504 1502 1500 1496 1492 1488 1484 1479 1473 1468
1522 1523 1523 1521 1508 1502 1501 1499 1497 1496 1494 1491 1490 1487 1485 1482 1480 1478 1477 1477 1478 1480 1482 1485 1488 1490 1493 1496 1498 1499 1500 1501 1501 1501 1500 1499 1497 1494 1491 1486 1482 1477 1471 1466
1507 1515 1514 1509 1499 1496 1490 1489 1488 1488 1486 1484 1482 1479 1476 1474 1471 1470 1469 1469 1470 1472 1475 1478 1480 1484 1487 1490 1492 1494 1495 1496 1497 1497 1496 1495 1493 1491 1488 1485 1481 1476 1471 1466
1500 1501 1501 1490 1486 1487 1481 1482 1482 1480 1477 1475 1472 1469 1467 1465 1463 1461 1460 1461 1462 1464 1467 1469 1473 1477 1480 1483 1486 1488 1489 1491 1492 1492 1492 1492 1490 1488 1486 1483 1480 1475 1471 1466